THORAD DELTA 1 DEB, 17023

Orbit data source: Space-Track

THORAD DELTA 1 DEB, 17023 is space debris in SSO originally from a launch on Fri, 15 Nov 1974 UTC launched from the Air Force Western Test Range (AFWTR). Debris objects in space refer to the collection of defunct objects orbiting the Earth. Examples of debris include non-operational satellites, rocket bodies, and fragments generated from explosions, collisions, or faulty payload assembly.

Loading next visibility...
Identifier
17023, 1974-089EW
Orbit
SSO
Country
Flag of USUS
Related business
Manufacturer
Unknown
Mission
Spacecraft
Bus & Motor
Unknown
Mass
Unknown
Launch date (UTC)
1974-11-15 (52 years ago)
Launch vehicle
Unknown
Launch site
Air Force Western Test Range (AFWTR)
Object type
Payload
Rocket body
Debris
Shape & HBR
Unknown shape, 0.1 m
Radar Cross Section
Medium (>0.1 m² and <1 m²)

Expand to show TLE details & history
Last TLE update: 11 hours ago

TLE from 11 hours ago
0 THORAD DELTA 1 DEB
1 17023U 74089EW  26208.37857119  .00000205  00000-0  13439-2 0  9999
2 17023 101.5095 174.6078 0050934 197.0125 317.8884 12.64708955913789
Epoch: 2026-07-27T09:05Z
TLE epoch observation values (Epoch: 2026-07-27T09:05:08.550Z)
Latitude
24.973°
Longitude
-81.32609°
Altitude
1,377 km
Speed
7.186 km/s
True Right ascension
00h 00m 05s
True Declination
24° 51' 08"
Sunlit
Object was in daylight at epoch
Visualization orbit readout
Latitude
Unknown
Longitude
Unknown
Altitude
Unknown
Speed
Unknown
Apparent Right ascension
Unknown
Apparent Declination
Unknown
Sunlit
N/A
Visualization observer readout
Local Sidereal Time
09:33:28
Azimuth
Unknown
Elevation
Unknown
Doppler factor
Unknown
Orbital elements
Apogee altitude
1,440.704 km
Perigee altitude
1,361.459 km
Semi-major axis
7,779.219 km
Eccentricity
0.00509
Inclination
101.5095°
RAAN
174.6078°
Arg. of periapsis
197.0125°
True anomaly
317.49516°
Mean anomaly
317.8884°
Eccentric anomaly
317.69196°
Mean motion
3.16329 °/min
Orbital period
113.81 mins
BSTAR
0.0013439
Loading maneuver chart data...
Computing Atmospheric mass density...

Documentation

Showing up to 5 results
|